,,PressureMeas_1m,,PRMeasQMR101_1,,RHStat155_1m_1,,SRMeasQMS101R_1m,,TAStat155_1m_1,,GenWind_1,,GenWind_1,
2019-07-30, 00:00:06,VALID,919.649,VALID,0.0,VALID,98.583,VALID,-0.011,VALID,19.603,VALID,65.0,VALID,0.0,
2019-07-30, 00:01:06,VALID,919.617,VALID,0.0,VALID,98.542,VALID,0.008,VALID,19.569,VALID,65.0,VALID,0.0,
2019-07-30, 00:02:06,VALID,919.598,VALID,0.0,VALID,98.485,VALID,0.021,VALID,19.539,VALID,65.0,VALID,0.0,
2019-07-30, 00:03:06,VALID,919.591,VALID,0.0,VALID,98.417,VALID,0.016,VALID,19.514,VALID,65.0,VALID,0.0,
2019-07-30, 00:04:06,VALID,919.563,VALID,0.0,VALID,98.361,VALID,-0.004,VALID,19.479,VALID,65.0,VALID,0.0,
2019-07-30, 00:05:06,VALID,919.533,VALID,0.0,VALID,98.349,VALID,-0.003,VALID,19.464,VALID,65.0,VALID,0.0,
2019-07-30, 00:06:06,VALID,919.524,VALID,0.0,VALID,98.441,VALID,-0.001,VALID,19.493,VALID,65.0,VALID,0.0,
2019-07-30, 00:07:06,VALID,919.523,VALID,0.0,VALID,98.614,VALID,-0.021,VALID,19.54,VALID,67.0,VALID,0.0,
2019-07-30, 00:08:06,VALID,919.496,VALID,0.0,VALID,98.729,VALID,-0.001,VALID,19.547,VALID,89.0,VALID,0.0,
2019-07-30, 00:09:06,VALID,919.485,VALID,0.0,VALID,98.846,VALID,-0.008,VALID,19.598,VALID,93.0,VALID,0.0,
2019-07-30, 00:10:06,VALID,919.454,VALID,0.0,VALID,98.862,VALID,-0.006,VALID,19.563,VALID,110.0,VALID,0.0,
2019-07-30, 00:11:06,VALID,919.451,VALID,0.0,VALID,98.646,VALID,-0.016,VALID,19.427,VALID,119.0,VALID,0.0,
2019-07-30, 00:12:06,VALID,919.437,VALID,0.0,VALID,98.475,VALID,-0.014,VALID,19.355,VALID,125.0,VALID,0.0,
2019-07-30, 00:13:06,VALID,919.436,VALID,0.0,VALID,98.547,VALID,-0.002,VALID,19.345,VALID,126.0,VALID,0.0,
2019-07-30, 00:14:06,VALID,919.435,VALID,0.0,VALID,98.546,VALID,0.002,VALID,19.341,VALID,125.0,VALID,0.0,
2019-07-30, 00:15:06,VALID,919.441,VALID,0.0,VALID,98.847,VALID,-0.005,VALID,19.453,VALID,120.0,VALID,0.0,
2019-07-30, 00:16:06,VALID,919.427,VALID,0.0,VALID,98.975,VALID,-0.009,VALID,19.48,VALID,112.0,VALID,0.0,
2019-07-30, 00:17:06,VALID,919.43,VALID,0.0,VALID,99.052,VALID,-0.018,VALID,19.48,VALID,97.0,VALID,0.0,
2019-07-30, 00:18:06,VALID,919.415,VALID,0.0,VALID,99.07,VALID,-0.011,VALID,19.461,VALID,91.0,VALID,0.0,
2019-07-30, 00:19:06,VALID,919.392,VALID,0.0,VALID,99.134,VALID,0.015,VALID,19.464,VALID,87.0,VALID,0.0,
2019-07-30, 00:20:06,VALID,919.39,VALID,0.0,VALID,99.173,VALID,0.033,VALID,19.453,VALID,88.0,VALID,0.0,
2019-07-30, 00:21:06,VALID,919.37,VALID,0.0,VALID,99.206,VALID,0.017,VALID,19.45,VALID,90.0,VALID,0.0,
2019-07-30, 00:22:06,VALID,919.345,VALID,0.0,VALID,99.204,VALID,0.024,VALID,19.446,VALID,86.0,VALID,0.0,
2019-07-30, 00:23:06,VALID,919.342,VALID,0.0,VALID,99.262,VALID,0.014,VALID,19.503,VALID,81.0,VALID,0.0,
2019-07-30, 00:24:06,VALID,919.347,VALID,0.0,VALID,99.326,VALID,0.018,VALID,19.53,VALID,83.0,VALID,0.0,
2019-07-30, 00:25:06,VALID,919.345,VALID,0.0,VALID,99.323,VALID,0.005,VALID,19.547,VALID,87.0,VALID,0.0,
2019-07-30, 00:26:06,VALID,919.346,VALID,0.0,VALID,99.328,VALID,0.023,VALID,19.537,VALID,91.0,VALID,0.0,
2019-07-30, 00:27:06,VALID,919.325,VALID,0.0,VALID,99.345,VALID,0.012,VALID,19.514,VALID,100.0,VALID,0.0,
2019-07-30, 00:28:06,VALID,919.302,VALID,0.0,VALID,99.368,VALID,0.007,VALID,19.557,VALID,103.0,VALID,0.0,
2019-07-30, 00:29:06,VALID,919.288,VALID,0.0,VALID,99.399,VALID,0.016,VALID,19.597,VALID,102.0,VALID,0.0,
2019-07-30, 00:30:06,VALID,919.272,VALID,0.0,VALID,99.435,VALID,0.012,VALID,19.631,VALID,101.0,VALID,0.0,
2019-07-30, 00:31:06,VALID,919.245,VALID,0.0,VALID,99.439,VALID,0.0,VALID,19.662,VALID,99.0,VALID,0.0,
2019-07-30, 00:32:06,VALID,919.212,VALID,0.0,VALID,99.467,VALID,0.011,VALID,19.695,VALID,101.0,VALID,0.0,
2019-07-30, 00:33:06,VALID,919.196,VALID,0.0,VALID,99.47,VALID,0.018,VALID,19.723,VALID,97.0,VALID,0.0,
2019-07-30, 00:34:06,VALID,919.179,VALID,0.0,VALID,99.498,VALID,0.026,VALID,19.737,VALID,101.0,VALID,0.0,
2019-07-30, 00:35:06,VALID,919.144,VALID,0.0,VALID,99.493,VALID,0.024,VALID,19.747,VALID,89.0,VALID,0.0,
2019-07-30, 00:36:06,VALID,919.11,VALID,0.0,VALID,99.491,VALID,0.005,VALID,19.73,VALID,79.0,VALID,0.0,
2019-07-30, 00:37:06,VALID,919.127,VALID,0.0,VALID,99.465,VALID,0.02,VALID,19.665,VALID,77.0,VALID,0.0,
2019-07-30, 00:38:06,VALID,919.092,VALID,0.0,VALID,99.475,VALID,0.021,VALID,19.672,VALID,81.0,VALID,0.0,
2019-07-30, 00:39:06,VALID,919.111,VALID,0.0,VALID,99.496,VALID,0.017,VALID,19.637,VALID,71.0,VALID,0.0,
2019-07-30, 00:40:06,VALID,919.12,VALID,0.0,VALID,99.471,VALID,0.027,VALID,19.6,VALID,82.0,VALID,0.0,
2019-07-30, 00:41:06,VALID,919.108,VALID,0.0,VALID,99.501,VALID,0.016,VALID,19.602,VALID,83.0,VALID,0.0,
2019-07-30, 00:42:06,VALID,919.093,VALID,0.0,VALID,99.528,VALID,0.012,VALID,19.626,VALID,89.0,VALID,0.0,
2019-07-30, 00:43:06,VALID,919.075,VALID,0.0,VALID,99.521,VALID,0.02,VALID,19.652,VALID,83.0,VALID,0.0,
2019-07-30, 00:44:06,VALID,919.045,VALID,0.0,VALID,99.548,VALID,0.019,VALID,19.667,VALID,79.0,VALID,0.0,
2019-07-30, 00:45:06,VALID,919.029,VALID,0.0,VALID,99.531,VALID,0.015,VALID,19.665,VALID,84.0,VALID,0.0,
2019-07-30, 00:46:06,VALID,919.02,VALID,0.0,VALID,99.537,VALID,0.015,VALID,19.681,VALID,96.0,VALID,0.0,
2019-07-30, 00:47:06,VALID,918.985,VALID,0.0,VALID,99.553,VALID,0.013,VALID,19.701,VALID,90.0,VALID,0.0,
2019-07-30, 00:48:06,VALID,919.002,VALID,0.0,VALID,99.549,VALID,0.009,VALID,19.694,VALID,88.0,VALID,0.0,
2019-07-30, 00:49:06,VALID,918.965,VALID,0.0,VALID,99.541,VALID,-0.012,VALID,19.684,VALID,95.0,VALID,0.0,
2019-07-30, 00:50:06,VALID,918.945,VALID,0.0,VALID,99.549,VALID,-0.008,VALID,19.67,VALID,77.0,VALID,0.0,
2019-07-30, 00:51:06,VALID,918.932,VALID,0.0,VALID,99.566,VALID,-0.012,VALID,19.661,VALID,71.0,VALID,0.0,
2019-07-30, 00:52:06,VALID,918.932,VALID,0.0,VALID,99.545,VALID,-0.007,VALID,19.622,VALID,69.0,VALID,0.0,
2019-07-30, 00:53:06,VALID,918.912,VALID,0.0,VALID,99.538,VALID,0.007,VALID,19.6,VALID,82.0,VALID,0.0,
2019-07-30, 00:54:06,VALID,918.894,VALID,0.0,VALID,99.542,VALID,-0.008,VALID,19.589,VALID,95.0,VALID,0.0,
2019-07-30, 00:55:06,VALID,918.904,VALID,0.0,VALID,99.551,VALID,-0.012,VALID,19.583,VALID,96.0,VALID,0.0,
2019-07-30, 00:56:06,VALID,918.893,VALID,0.0,VALID,99.575,VALID,-0.021,VALID,19.559,VALID,101.0,VALID,0.0,
2019-07-30, 00:57:06,VALID,918.876,VALID,0.0,VALID,99.549,VALID,-0.001,VALID,19.517,VALID,102.0,VALID,0.0,
2019-07-30, 00:58:06,VALID,918.857,VALID,0.0,VALID,99.546,VALID,-0.003,VALID,19.489,VALID,97.0,VALID,0.0,
2019-07-30, 00:59:06,VALID,918.862,VALID,0.0,VALID,99.547,VALID,-0.024,VALID,19.489,VALID,100.0,VALID,0.0,
2019-07-30, 01:00:06,VALID,918.864,VALID,0.0,VALID,99.573,VALID,-0.014,VALID,19.513,VALID,99.0,VALID,0.0,
2019-07-30, 01:01:06,VALID,918.89,VALID,0.0,VALID,99.568,VALID,-0.02,VALID,19.505,VALID,100.0,VALID,0.0,
2019-07-30, 01:02:06,VALID,918.876,VALID,0.0,VALID,99.585,VALID,-0.026,VALID,19.531,VALID,105.0,VALID,0.0,
2019-07-30, 01:03:06,VALID,918.878,VALID,0.0,VALID,99.584,VALID,0.0,VALID,19.519,VALID,107.0,VALID,0.0,
2019-07-30, 01:04:06,VALID,918.88,VALID,0.0,VALID,99.592,VALID,-0.014,VALID,19.534,VALID,118.0,VALID,0.0,
2019-07-30, 01:05:06,VALID,918.835,VALID,0.0,VALID,99.607,VALID,-0.006,VALID,19.582,VALID,143.0,VALID,0.0,
2019-07-30, 01:06:06,VALID,918.858,VALID,0.0,VALID,99.646,VALID,-0.015,VALID,19.645,VALID,134.0,VALID,0.0,
2019-07-30, 01:07:06,VALID,918.843,VALID,0.0,VALID,99.639,VALID,-0.001,VALID,19.689,VALID,125.0,VALID,0.0,
2019-07-30, 01:08:06,VALID,918.824,VALID,0.0,VALID,99.651,VALID,-0.006,VALID,19.712,VALID,144.0,VALID,0.0,
2019-07-30, 01:09:06,VALID,918.825,VALID,0.0,VALID,99.652,VALID,0.006,VALID,19.711,VALID,115.0,VALID,0.0,
2019-07-30, 01:10:06,VALID,918.798,VALID,0.0,VALID,99.653,VALID,-0.001,VALID,19.688,VALID,132.0,VALID,0.0,
2019-07-30, 01:11:06,VALID,918.78,VALID,0.0,VALID,99.645,VALID,0.0,VALID,19.663,VALID,116.0,VALID,0.0,
2019-07-30, 01:12:06,VALID,918.789,VALID,0.0,VALID,99.627,VALID,0.013,VALID,19.639,VALID,122.0,VALID,0.0,
2019-07-30, 01:13:06,VALID,918.79,VALID,0.0,VALID,99.653,VALID,-0.002,VALID,19.631,VALID,121.0,VALID,0.0,
2019-07-30, 01:14:06,VALID,918.798,VALID,0.0,VALID,99.652,VALID,0.008,VALID,19.643,VALID,124.0,VALID,0.0,
2019-07-30, 01:15:06,VALID,918.828,VALID,0.0,VALID,99.643,VALID,0.009,VALID,19.651,VALID,119.0,VALID,0.0,
2019-07-30, 01:16:06,VALID,918.795,VALID,0.0,VALID,99.657,VALID,0.006,VALID,19.624,VALID,121.0,VALID,0.0,
2019-07-30, 01:17:06,VALID,918.797,VALID,0.0,VALID,99.65,VALID,0.0,VALID,19.63,VALID,124.0,VALID,0.0,
2019-07-30, 01:18:06,VALID,918.802,VALID,0.0,VALID,99.665,VALID,-0.004,VALID,19.635,VALID,126.0,VALID,0.0,
2019-07-30, 01:19:06,VALID,918.826,VALID,0.0,VALID,99.649,VALID,0.0,VALID,19.614,VALID,119.0,VALID,0.0,
2019-07-30, 01:20:06,VALID,918.807,VALID,0.0,VALID,99.645,VALID,0.002,VALID,19.578,VALID,102.0,VALID,0.0,
2019-07-30, 01:21:06,VALID,918.796,VALID,0.0,VALID,99.655,VALID,0.001,VALID,19.545,VALID,102.0,VALID,0.0,
2019-07-30, 01:22:06,VALID,918.804,VALID,0.0,VALID,99.646,VALID,-0.006,VALID,19.506,VALID,101.0,VALID,0.0,
2019-07-30, 01:23:06,VALID,918.801,VALID,0.0,VALID,99.632,VALID,-0.006,VALID,19.45,VALID,98.0,VALID,0.0,
2019-07-30, 01:24:06,VALID,918.815,VALID,0.0,VALID,99.645,VALID,0.004,VALID,19.419,VALID,103.0,VALID,0.0,
2019-07-30, 01:25:06,VALID,918.807,VALID,0.0,VALID,99.654,VALID,-0.014,VALID,19.459,VALID,127.0,VALID,0.0,
2019-07-30, 01:26:06,VALID,918.8,VALID,0.0,VALID,99.696,VALID,-0.007,VALID,19.544,VALID,127.0,VALID,0.0,
2019-07-30, 01:27:06,VALID,918.808,VALID,0.0,VALID,99.682,VALID,-0.009,VALID,19.594,VALID,126.0,VALID,0.0,
2019-07-30, 01:28:06,VALID,918.814,VALID,0.0,VALID,99.678,VALID,0.013,VALID,19.618,VALID,115.0,VALID,0.0,
2019-07-30, 01:29:06,VALID,918.819,VALID,0.0,VALID,99.69,VALID,-0.002,VALID,19.658,VALID,130.0,VALID,0.0,
2019-07-30, 01:30:06,VALID,918.795,VALID,0.0,VALID,99.685,VALID,-0.022,VALID,19.67,VALID,127.0,VALID,0.0,
2019-07-30, 01:31:06,VALID,918.79,VALID,0.0,VALID,99.679,VALID,-0.02,VALID,19.682,VALID,114.0,VALID,0.0,
2019-07-30, 01:32:06,VALID,918.769,VALID,0.0,VALID,99.685,VALID,-0.017,VALID,19.694,VALID,128.0,VALID,0.0,
2019-07-30, 01:33:06,VALID,918.745,VALID,0.0,VALID,99.684,VALID,-0.0,VALID,19.695,VALID,120.0,VALID,0.0,
2019-07-30, 01:34:06,VALID,918.71,VALID,0.0,VALID,99.685,VALID,-0.003,VALID,19.696,VALID,141.0,VALID,0.0,
2019-07-30, 01:35:06,VALID,918.699,VALID,0.0,VALID,99.667,VALID,-0.013,VALID,19.673,VALID,130.0,VALID,0.0,
2019-07-30, 01:36:06,VALID,918.704,VALID,0.0,VALID,99.674,VALID,-0.026,VALID,19.654,VALID,113.0,VALID,0.0,
2019-07-30, 01:37:06,VALID,918.682,VALID,0.0,VALID,99.686,VALID,-0.02,VALID,19.639,VALID,115.0,VALID,0.0,
2019-07-30, 01:38:06,VALID,918.64,VALID,0.0,VALID,99.674,VALID,-0.025,VALID,19.628,VALID,107.0,VALID,0.0,
2019-07-30, 01:39:06,VALID,918.628,VALID,0.0,VALID,99.666,VALID,-0.01,VALID,19.613,VALID,120.0,VALID,0.0,
2019-07-30, 01:40:06,VALID,918.614,VALID,0.0,VALID,99.684,VALID,-0.012,VALID,19.598,VALID,124.0,VALID,0.0,
2019-07-30, 01:41:06,VALID,918.583,VALID,0.0,VALID,99.689,VALID,-0.037,VALID,19.588,VALID,108.0,VALID,0.0,
2019-07-30, 01:42:06,VALID,918.561,VALID,0.0,VALID,99.683,VALID,-0.032,VALID,19.569,VALID,109.0,VALID,0.0,
2019-07-30, 01:43:06,VALID,918.549,VALID,0.0,VALID,99.694,VALID,-0.031,VALID,19.552,VALID,99.0,VALID,0.0,
2019-07-30, 01:44:06,VALID,918.51,VALID,0.0,VALID,99.673,VALID,-0.022,VALID,19.525,VALID,107.0,VALID,0.0,
2019-07-30, 01:45:06,VALID,918.477,VALID,0.0,VALID,99.682,VALID,-0.004,VALID,19.506,VALID,93.0,VALID,0.0,
2019-07-30, 01:46:06,VALID,918.46,VALID,0.0,VALID,99.675,VALID,0.001,VALID,19.471,VALID,81.0,VALID,0.0,
2019-07-30, 01:47:06,VALID,918.448,VALID,0.0,VALID,99.685,VALID,-0.011,VALID,19.462,VALID,82.0,VALID,0.0,
2019-07-30, 01:48:06,VALID,918.409,VALID,0.0,VALID,99.697,VALID,-0.006,VALID,19.434,VALID,71.0,VALID,0.0,
2019-07-30, 01:49:06,VALID,918.405,VALID,0.0,VALID,99.693,VALID,-0.009,VALID,19.406,VALID,77.0,VALID,0.0,
2019-07-30, 01:50:06,VALID,918.41,VALID,0.0,VALID,99.695,VALID,-0.0,VALID,19.405,VALID,82.0,VALID,0.0,
2019-07-30, 01:51:06,VALID,918.388,VALID,0.0,VALID,99.696,VALID,-0.011,VALID,19.383,VALID,84.0,VALID,0.0,
2019-07-30, 01:52:06,VALID,918.393,VALID,0.0,VALID,99.693,VALID,0.005,VALID,19.361,VALID,87.0,VALID,0.0,
2019-07-30, 01:53:06,VALID,918.38,VALID,0.0,VALID,99.706,VALID,-0.011,VALID,19.381,VALID,97.0,VALID,0.0,
2019-07-30, 01:54:06,VALID,918.394,VALID,0.0,VALID,99.703,VALID,-0.019,VALID,19.379,VALID,87.0,VALID,0.0,
2019-07-30, 01:55:06,VALID,918.376,VALID,0.0,VALID,99.694,VALID,-0.007,VALID,19.376,VALID,91.0,VALID,0.0,
2019-07-30, 01:56:06,VALID,918.35,VALID,0.0,VALID,99.705,VALID,-0.002,VALID,19.374,VALID,87.0,VALID,0.0,
2019-07-30, 01:57:06,VALID,918.358,VALID,0.0,VALID,99.702,VALID,0.003,VALID,19.374,VALID,107.0,VALID,0.0,
2019-07-30, 01:58:06,VALID,918.357,VALID,0.0,VALID,99.695,VALID,0.015,VALID,19.374,VALID,108.0,VALID,0.0,
2019-07-30, 01:59:06,VALID,918.352,VALID,0.0,VALID,99.722,VALID,0.003,VALID,19.392,VALID,88.0,VALID,0.0,
2019-07-30, 02:00:06,VALID,918.363,VALID,0.0,VALID,99.712,VALID,0.003,VALID,19.389,VALID,96.0,VALID,0.0,
2019-07-30, 02:01:06,VALID,918.365,VALID,0.0,VALID,99.709,VALID,0.005,VALID,19.391,VALID,94.0,VALID,0.0,
2019-07-30, 02:02:06,VALID,918.364,VALID,0.0,VALID,99.693,VALID,0.003,VALID,19.409,VALID,79.0,VALID,0.0,
2019-07-30, 02:03:06,VALID,918.345,VALID,0.0,VALID,99.705,VALID,0.014,VALID,19.386,VALID,82.0,VALID,0.0,
2019-07-30, 02:04:06,VALID,918.336,VALID,0.0,VALID,99.708,VALID,-0.013,VALID,19.343,VALID,85.0,VALID,0.0,
2019-07-30, 02:05:06,VALID,918.315,VALID,0.0,VALID,99.71,VALID,-0.013,VALID,19.319,VALID,96.0,VALID,0.0,
2019-07-30, 02:06:06,VALID,918.308,VALID,0.0,VALID,99.711,VALID,-0.007,VALID,19.29,VALID,98.0,VALID,0.0,
2019-07-30, 02:07:06,VALID,918.268,VALID,0.0,VALID,99.698,VALID,-0.015,VALID,19.281,VALID,107.0,VALID,0.0,
2019-07-30, 02:08:06,VALID,918.25,VALID,0.0,VALID,99.725,VALID,-0.015,VALID,19.278,VALID,98.0,VALID,0.0,
2019-07-30, 02:09:06,VALID,918.253,VALID,0.0,VALID,99.719,VALID,-0.014,VALID,19.26,VALID,103.0,VALID,0.0,
2019-07-30, 02:10:06,VALID,918.229,VALID,0.0,VALID,99.712,VALID,-0.006,VALID,19.246,VALID,100.0,VALID,0.0,
2019-07-30, 02:11:06,VALID,918.237,VALID,0.0,VALID,99.717,VALID,-0.001,VALID,19.227,VALID,86.0,VALID,0.0,
2019-07-30, 02:12:06,VALID,918.199,VALID,0.0,VALID,99.713,VALID,-0.002,VALID,19.201,VALID,90.0,VALID,0.0,
2019-07-30, 02:13:06,VALID,918.221,VALID,0.0,VALID,99.708,VALID,-0.011,VALID,19.186,VALID,108.0,VALID,0.0,
2019-07-30, 02:14:06,VALID,918.21,VALID,0.0,VALID,99.702,VALID,-0.011,VALID,19.177,VALID,112.0,VALID,0.0,
2019-07-30, 02:15:06,VALID,918.207,VALID,0.0,VALID,99.706,VALID,-0.007,VALID,19.158,VALID,110.0,VALID,0.0,
2019-07-30, 02:16:06,VALID,918.191,VALID,0.0,VALID,99.7,VALID,-0.038,VALID,19.135,VALID,105.0,VALID,0.0,
2019-07-30, 02:17:06,VALID,918.172,VALID,0.0,VALID,99.702,VALID,-0.029,VALID,19.11,VALID,101.0,VALID,0.0,
2019-07-30, 02:18:06,VALID,918.136,VALID,0.0,VALID,99.701,VALID,-0.02,VALID,19.124,VALID,104.0,VALID,0.0,
2019-07-30, 02:19:06,VALID,918.12,VALID,0.0,VALID,99.715,VALID,0.002,VALID,19.105,VALID,101.0,VALID,0.0,
2019-07-30, 02:20:06,VALID,918.088,VALID,0.0,VALID,99.712,VALID,0.003,VALID,19.093,VALID,101.0,VALID,0.0,
2019-07-30, 02:21:06,VALID,918.072,VALID,0.0,VALID,99.719,VALID,-0.007,VALID,19.073,VALID,101.0,VALID,0.0,
2019-07-30, 02:22:06,VALID,918.045,VALID,0.0,VALID,99.718,VALID,0.007,VALID,19.054,VALID,96.0,VALID,0.0,
2019-07-30, 02:23:06,VALID,918.043,VALID,0.0,VALID,99.722,VALID,0.005,VALID,19.047,VALID,99.0,VALID,0.0,
2019-07-30, 02:24:06,VALID,918.046,VALID,0.0,VALID,99.722,VALID,0.006,VALID,19.01,VALID,102.0,VALID,0.0,
2019-07-30, 02:25:07,VALID,918.055,VALID,0.0,VALID,99.712,VALID,-0.009,VALID,18.981,VALID,106.0,VALID,0.0,
2019-07-30, 02:26:07,VALID,918.058,VALID,0.0,VALID,99.74,VALID,-0.003,VALID,18.952,VALID,102.0,VALID,0.0,
2019-07-30, 02:27:07,VALID,918.056,VALID,0.0,VALID,99.719,VALID,0.002,VALID,18.956,VALID,104.0,VALID,0.0,
2019-07-30, 02:28:07,VALID,918.078,VALID,0.0,VALID,99.727,VALID,0.013,VALID,18.947,VALID,108.0,VALID,0.0,
2019-07-30, 02:29:07,VALID,918.063,VALID,0.0,VALID,99.721,VALID,0.008,VALID,18.934,VALID,108.0,VALID,0.0,
2019-07-30, 02:30:07,VALID,918.09,VALID,0.0,VALID,99.722,VALID,0.011,VALID,18.902,VALID,97.0,VALID,0.0,
2019-07-30, 02:31:07,VALID,918.072,VALID,0.0,VALID,99.721,VALID,0.004,VALID,18.884,VALID,100.0,VALID,0.0,
2019-07-30, 02:32:07,VALID,918.063,VALID,0.0,VALID,99.718,VALID,0.004,VALID,18.864,VALID,90.0,VALID,0.0,
2019-07-30, 02:33:07,VALID,918.047,VALID,0.0,VALID,99.716,VALID,0.014,VALID,18.835,VALID,96.0,VALID,0.0,
2019-07-30, 02:34:07,VALID,918.065,VALID,0.0,VALID,99.728,VALID,0.022,VALID,18.837,VALID,107.0,VALID,0.0,
2019-07-30, 02:35:07,VALID,918.034,VALID,0.0,VALID,99.715,VALID,0.022,VALID,18.843,VALID,102.0,VALID,0.0,
2019-07-30, 02:36:07,VALID,918.026,VALID,0.0,VALID,99.734,VALID,0.024,VALID,18.824,VALID,110.0,VALID,0.0,
2019-07-30, 02:37:07,VALID,918.031,VALID,0.0,VALID,99.752,VALID,0.024,VALID,18.861,VALID,123.0,VALID,0.0,
2019-07-30, 02:38:07,VALID,918.022,VALID,0.0,VALID,99.75,VALID,0.014,VALID,18.912,VALID,127.0,VALID,0.0,
2019-07-30, 02:39:07,VALID,918.021,VALID,0.0,VALID,99.745,VALID,0.023,VALID,18.927,VALID,115.0,VALID,0.0,
2019-07-30, 02:40:07,VALID,918.014,VALID,0.0,VALID,99.737,VALID,0.028,VALID,18.899,VALID,115.0,VALID,0.0,
2019-07-30, 02:41:07,VALID,918.016,VALID,0.0,VALID,99.743,VALID,0.031,VALID,18.906,VALID,116.0,VALID,0.0,
2019-07-30, 02:42:07,VALID,918.01,VALID,0.0,VALID,99.738,VALID,0.027,VALID,18.895,VALID,102.0,VALID,0.0,
2019-07-30, 02:43:07,VALID,918.017,VALID,0.0,VALID,99.735,VALID,0.02,VALID,18.865,VALID,98.0,VALID,0.0,
2019-07-30, 02:44:07,VALID,918.001,VALID,0.0,VALID,99.74,VALID,0.02,VALID,18.852,VALID,107.0,VALID,0.0,
2019-07-30, 02:45:07,VALID,918.001,VALID,0.0,VALID,99.722,VALID,0.029,VALID,18.823,VALID,116.0,VALID,0.0,
2019-07-30, 02:46:07,VALID,918.005,VALID,0.0,VALID,99.721,VALID,0.031,VALID,18.804,VALID,123.0,VALID,0.0,
2019-07-30, 02:47:07,VALID,917.991,VALID,0.0,VALID,99.733,VALID,0.027,VALID,18.813,VALID,127.0,VALID,0.0,
2019-07-30, 02:48:07,VALID,917.991,VALID,0.0,VALID,99.752,VALID,0.01,VALID,18.827,VALID,121.0,VALID,0.0,
2019-07-30, 02:49:07,VALID,918.003,VALID,0.0,VALID,99.743,VALID,0.0,VALID,18.785,VALID,105.0,VALID,0.0,
2019-07-30, 02:50:07,VALID,917.982,VALID,0.0,VALID,99.734,VALID,0.011,VALID,18.736,VALID,101.0,VALID,0.0,
2019-07-30, 02:51:07,VALID,917.98,VALID,0.0,VALID,99.75,VALID,-0.002,VALID,18.687,VALID,91.0,VALID,0.0,
2019-07-30, 02:52:07,VALID,917.965,VALID,0.0,VALID,99.749,VALID,-0.003,VALID,18.662,VALID,82.0,VALID,0.0,
2019-07-30, 02:53:07,VALID,917.944,VALID,0.0,VALID,99.747,VALID,-0.015,VALID,18.645,VALID,81.0,VALID,0.0,
2019-07-30, 02:54:07,VALID,917.941,VALID,0.0,VALID,99.751,VALID,-0.012,VALID,18.626,VALID,79.0,VALID,0.0,
2019-07-30, 02:55:07,VALID,917.932,VALID,0.0,VALID,99.735,VALID,-0.02,VALID,18.627,VALID,84.0,VALID,0.0,
2019-07-30, 02:56:07,VALID,917.922,VALID,0.0,VALID,99.742,VALID,-0.007,VALID,18.613,VALID,85.0,VALID,0.0,
2019-07-30, 02:57:07,VALID,917.913,VALID,0.0,VALID,99.728,VALID,-0.022,VALID,18.604,VALID,79.0,VALID,0.0,
2019-07-30, 02:58:07,VALID,917.898,VALID,0.0,VALID,99.727,VALID,0.002,VALID,18.579,VALID,95.0,VALID,0.0,
2019-07-30, 02:59:07,VALID,917.9,VALID,0.0,VALID,99.729,VALID,0.002,VALID,18.535,VALID,115.0,VALID,0.0,
2019-07-30, 03:00:07,VALID,917.897,VALID,0.0,VALID,99.725,VALID,-0.015,VALID,18.47,VALID,111.0,VALID,0.0,
2019-07-30, 03:01:07,VALID,917.927,VALID,0.0,VALID,99.701,VALID,0.002,VALID,18.427,VALID,104.0,VALID,0.0,
2019-07-30, 03:02:07,VALID,917.927,VALID,0.0,VALID,99.718,VALID,-0.005,VALID,18.401,VALID,95.0,VALID,0.0,
2019-07-30, 03:03:07,VALID,917.914,VALID,0.0,VALID,99.721,VALID,0.002,VALID,18.389,VALID,83.0,VALID,0.0,
2019-07-30, 03:04:07,VALID,917.922,VALID,0.0,VALID,99.709,VALID,0.021,VALID,18.371,VALID,68.0,VALID,0.0,
2019-07-30, 03:05:07,VALID,917.913,VALID,0.0,VALID,99.722,VALID,0.038,VALID,18.36,VALID,66.0,VALID,0.0,
2019-07-30, 03:06:07,VALID,917.907,VALID,0.0,VALID,99.711,VALID,0.028,VALID,18.382,VALID,81.0,VALID,0.0,
2019-07-30, 03:07:07,VALID,917.906,VALID,0.0,VALID,99.737,VALID,0.022,VALID,18.423,VALID,108.0,VALID,0.0,
2019-07-30, 03:08:07,VALID,917.909,VALID,0.0,VALID,99.713,VALID,0.006,VALID,18.458,VALID,108.0,VALID,0.0,
2019-07-30, 03:09:07,VALID,917.906,VALID,0.0,VALID,99.745,VALID,0.006,VALID,18.443,VALID,100.0,VALID,0.0,
2019-07-30, 03:10:07,VALID,917.91,VALID,0.0,VALID,99.731,VALID,0.012,VALID,18.446,VALID,98.0,VALID,0.0,
2019-07-30, 03:11:07,VALID,917.903,VALID,0.0,VALID,99.728,VALID,0.013,VALID,18.459,VALID,100.0,VALID,0.0,
2019-07-30, 03:12:07,VALID,917.917,VALID,0.0,VALID,99.745,VALID,0.019,VALID,18.427,VALID,86.0,VALID,0.0,
2019-07-30, 03:13:07,VALID,917.905,VALID,0.0,VALID,99.739,VALID,0.026,VALID,18.453,VALID,86.0,VALID,0.0,
2019-07-30, 03:14:07,VALID,917.912,VALID,0.0,VALID,99.735,VALID,0.023,VALID,18.468,VALID,89.0,VALID,0.0,
2019-07-30, 03:15:07,VALID,917.895,VALID,0.0,VALID,99.744,VALID,0.032,VALID,18.462,VALID,88.0,VALID,0.0,
2019-07-30, 03:16:07,VALID,917.889,VALID,0.0,VALID,99.732,VALID,0.013,VALID,18.417,VALID,96.0,VALID,0.0,
2019-07-30, 03:17:07,VALID,917.866,VALID,0.0,VALID,99.729,VALID,0.01,VALID,18.358,VALID,102.0,VALID,0.0,
2019-07-30, 03:18:07,VALID,917.862,VALID,0.0,VALID,99.752,VALID,0.022,VALID,18.358,VALID,99.0,VALID,0.0,
2019-07-30, 03:19:07,VALID,917.852,VALID,0.0,VALID,99.732,VALID,0.021,VALID,18.386,VALID,101.0,VALID,0.0,
2019-07-30, 03:20:07,VALID,917.85,VALID,0.0,VALID,99.733,VALID,0.004,VALID,18.368,VALID,100.0,VALID,0.0,
2019-07-30, 03:21:07,VALID,917.845,VALID,0.0,VALID,99.74,VALID,0.03,VALID,18.323,VALID,101.0,VALID,0.0,
2019-07-30, 03:22:07,VALID,917.834,VALID,0.0,VALID,99.736,VALID,0.024,VALID,18.307,VALID,101.0,VALID,0.0,
2019-07-30, 03:23:07,VALID,917.83,VALID,0.0,VALID,99.75,VALID,0.022,VALID,18.295,VALID,106.0,VALID,0.0,
2019-07-30, 03:24:07,VALID,917.839,VALID,0.0,VALID,99.75,VALID,0.03,VALID,18.287,VALID,109.0,VALID,0.0,
2019-07-30, 03:25:07,VALID,917.806,VALID,0.0,VALID,99.751,VALID,0.036,VALID,18.336,VALID,116.0,VALID,0.0,
2019-07-30, 03:26:07,VALID,917.818,VALID,0.0,VALID,99.762,VALID,0.017,VALID,18.357,VALID,121.0,VALID,0.0,
2019-07-30, 03:27:07,VALID,917.82,VALID,0.0,VALID,99.756,VALID,0.047,VALID,18.347,VALID,124.0,VALID,0.0,
2019-07-30, 03:28:07,VALID,917.82,VALID,0.0,VALID,99.752,VALID,0.025,VALID,18.366,VALID,123.0,VALID,0.0,
2019-07-30, 03:29:07,VALID,917.851,VALID,0.0,VALID,99.766,VALID,0.015,VALID,18.418,VALID,121.0,VALID,0.0,
2019-07-30, 03:30:07,VALID,917.824,VALID,0.0,VALID,99.765,VALID,0.018,VALID,18.391,VALID,121.0,VALID,0.0,
2019-07-30, 03:31:07,VALID,917.841,VALID,0.0,VALID,99.755,VALID,0.007,VALID,18.373,VALID,112.0,VALID,0.0,
2019-07-30, 03:32:07,VALID,917.846,VALID,0.0,VALID,99.748,VALID,0.026,VALID,18.334,VALID,99.0,VALID,0.0,
2019-07-30, 03:33:07,VALID,917.849,VALID,0.0,VALID,99.772,VALID,0.003,VALID,18.321,VALID,98.0,VALID,0.0,
2019-07-30, 03:34:07,VALID,917.842,VALID,0.0,VALID,99.762,VALID,0.005,VALID,18.3,VALID,101.0,VALID,0.0,
2019-07-30, 03:35:07,VALID,917.838,VALID,0.0,VALID,99.755,VALID,0.005,VALID,18.314,VALID,111.0,VALID,0.0,
2019-07-30, 03:36:07,VALID,917.845,VALID,0.0,VALID,99.766,VALID,-0.003,VALID,18.329,VALID,116.0,VALID,0.0,
2019-07-30, 03:37:07,VALID,917.851,VALID,0.0,VALID,99.765,VALID,-0.01,VALID,18.323,VALID,123.0,VALID,0.0,
2019-07-30, 03:38:07,VALID,917.856,VALID,0.0,VALID,99.754,VALID,-0.023,VALID,18.317,VALID,118.0,VALID,0.0,
2019-07-30, 03:39:07,VALID,917.854,VALID,0.0,VALID,99.767,VALID,-0.009,VALID,18.314,VALID,117.0,VALID,0.0,
2019-07-30, 03:40:07,VALID,917.858,VALID,0.0,VALID,99.757,VALID,0.004,VALID,18.294,VALID,117.0,VALID,0.0,
2019-07-30, 03:41:07,VALID,917.868,VALID,0.0,VALID,99.755,VALID,0.004,VALID,18.275,VALID,117.0,VALID,0.0,
2019-07-30, 03:42:07,VALID,917.855,VALID,0.0,VALID,99.762,VALID,0.004,VALID,18.285,VALID,118.0,VALID,0.0,
2019-07-30, 03:43:07,VALID,917.861,VALID,0.0,VALID,99.761,VALID,-0.004,VALID,18.271,VALID,118.0,VALID,0.0,